Regional Weather Roundup
Issued by NWS Wakefield, VA

Home | Current Version | Previous Version | Graphics & Text | Print | Product List | Glossary On
Versions: 1 2 3 4 5 6 7 8 9 10 11 12 13 14 15 16 17 18 19 20 21 22 23 24 25 26 27 28
000
ASUS41 KAKQ 290215
RWRAKQ

REGIONAL WEATHER ROUNDUP
NATIONAL WEATHER SERVICE WAKEFIELD VA
1000 PM EDT TUE MAR 28 2017

Note: "fair" indicates few or no clouds below 12,000 feet with no
significant weather and/or obstructions to visibility. * = Denotes
station may not report precipitation (e.g., rain,snow,etc.),
thunder or fog.

VAZ042-051-052>054-056-290300-
NORTHERN VIRGINIA

CITY           SKY/WX    TMP DP  RH WIND       PRES   REMARKS
WASH NATIONAL  LGT RAIN  64  56  75 N9        29.93R
DULLES         MOCLDY    59  57  93 NW5       29.94R
FORT BELVOIR   CLOUDY    62  59  90 N5        29.93R
QUANTICO       CLOUDY    63  62  97 NW8       29.93R
FREDERICKSBRG* PTCLDY    64  59  82 NW6       29.91R
STAFFORD*      PTCLDY    60  59  97 NW8       29.96R
WARRENTON      CLOUDY    61  58  88 CALM      29.94R
CULPEPER*      CLOUDY    60  60  98 CALM      29.95R
MANASSAS*      NOT AVBL
LEESBURG*      CLOUDY    61  61 100 N5        29.96R
WINCHESTER     CLOUDY    59  54  82 NW14      29.97R
FRONT ROYAL*   CLOUDY    61  54  77 NW6       29.95R
LURAY*         CLOUDY    63  55  77 N3        29.96R
$$

VAZ048-049-060>072-079>083-290300-
CENTRAL AND SOUTH CENTRAL VIRGINIA

CITY           SKY/WX    TMP DP  RH WIND       PRES   REMARKS
RICHMOND       PTCLDY    64  58  80 NW3       29.91R
CHESTERFIELD*  CLOUDY   N/A N/A N/A CALM      29.92S
PETERSBURG*    CLOUDY    59  57  94 CALM      29.92R
HANOVER        CLOUDY    60  57  89 CALM      29.93R
TAPPAHANNOCK*  PTCLDY    60  60 100 CALM      29.92R FOG
QUINTON*       CLOUDY    61  61 100 MISG      29.90S
CHARLOTTSVILLE PTCLDY    58  56  93 N5        29.94R
GORDONSVILLE*  PTCLDY    56  56 100 CALM      29.94R
ORANGE*        PTCLDY    54  54 100 CALM      29.95R
LOUISA*        MOCLDY    64  61  88 CALM      29.93R
BUMPASS*       CLOUDY    58  58 100 W6        29.93R
FARMVILLE*     CLEAR     61  60  98 CALM      29.92R
CREWE*         FAIR      58  58 100 CALM      29.92R
FORT PICKETT*  FAIR      58  54  88 CALM      29.92S
CHASE CITY*    FAIR      57  55  94 CALM      29.93R
CLARKSVILLE*   FAIR      61  55  82 W3        29.93R
SOUTH HILL*    CLEAR     55  55 100 CALM      29.98R
LAWRENCEVILLE* FAIR      58  56  91 CALM      29.91S
EMPORIA*       PTCLDY    55  55 100 CALM      29.93S
$$

VAZ088>098-290300-
SOUTHEAST VIRGINIA

CITY           SKY/WX    TMP DP  RH WIND       PRES   REMARKS
NORFOLK        PTCLDY    63  60  90 CALM      29.88S
VIRGINIA BEACH MOCLDY    62  59  90 NW5       29.88S
NORFOLK NAVAL  MOCLDY    61  58  90 CALM      29.90S
WEST POINT*    MOCLDY    59  58  97 CALM      29.92R VSB 1/4
SALUDA*          N/A     56  56 100 CALM      29.90R VSB 1
NEWPORT NEWS   PTCLDY    60  58  92 CALM      29.90R
LANGLEY AFB    PTCLDY    60  60 100 CALM      29.89S
FORT EUSTIS    DRZL/FOG  58  56  93 CALM      29.88R VSB 1/2
WILLIAMSBURG*  CLEAR     64  59  82 CALM      29.91R
HR EXEC AP*    FAIR      57  54  88 CALM      29.89R
FRANKLIN*      CLEAR     58  57  98 CALM      29.92R
US460-WAKEFLD  CLEAR     58  57  97 CALM      29.91R
$$

VAZ020-022-025-037-045-290300-
WEST CENTRAL AND SOUTHWEST VIRGINIA

CITY           SKY/WX    TMP DP  RH WIND       PRES   REMARKS
STAUNTON*      CLOUDY    57  52  84 NW3       29.98R
WAYNESBORO*    PTCLDY    62  51  67 W6        29.97R
HOT SPRINGS VA CLOUDY    52  45  76 NW10G16   30.04R
LYNCHBURG      CLEAR     56  48  74 CALM      29.96R
DANVILLE       CLEAR     61  51  70 W6        29.95R
SOUTH BOSTON*  FAIR      58  56  95 SW6       29.94R
MARTINSVILLE   CLEAR     60  49  67 NW8       30.00R
ROANOKE        MOCLDY    62  50  64 W9        30.00R
BLACKSBURG     CLEAR     57  51  79 W8        30.05S
DUBLIN*        CLEAR     58  50  74 W7        30.05R
MARION*        CLOUDY    58  50  74 W9        30.09R
HILLSVILLE*    CLOUDY    57  49  76 NW10G16   30.03R
RICHLANDS*     CLOUDY    55  51  86 NW3       30.08R
WISE*          CLOUDY    55  48  76 NW3       30.10R
ABINGDON*      CLOUDY    61  51  69 CALM      30.06S
$$

MDZ021>025-VAZ099-100-290300-
SOUTHERN MARYLAND AND THE DELMARVA PENINSULA

CITY           SKY/WX    TMP DP  RH WIND       PRES   REMARKS
PATUXENT RIVER CLEAR     54  54 100 N5        29.91R FOG
BAY BRIDGE APT CLEAR     59  54  82 N8        29.92R
LEONARDTOWN    CLEAR     57  54  88 CALM      29.92R
DOVER          CLOUDY    54  54 100 N12       29.91R
GEORGETOWN     CLOUDY    59  55  87 N8        29.91R
EASTON         NOT AVBL
CAMBRIDGE      PTCLDY    59  54  82 NW6       29.91R HAZE
SALISBURY      MOCLDY    60  58  92 NW3       29.89R
OCEAN CITY     MOCLDY    55  54  96 NW3       29.89R
WALLOPS ISLAND CLOUDY    60  58  92 W3        29.89R
ACCOMACK*      MOCLDY    56  50  81 CALM      29.89S
$$

NCZ012>017-030>032-290300-
NORTH CENTRAL AND EASTERN NORTH CAROLINA

CITY           SKY/WX    TMP DP  RH WIND       PRES   REMARKS
ROANOKE RAPIDS FOG       57  57 100 CALM      29.92S VSB 1/4
RALEIGH        PTCLDY    64  54  69 CALM      29.94R
ELIZABETH CITY CLEAR     61  58  90 SW6       29.90R
AHOSKIE*       FOG       56  56  99 CALM      29.92R VSB 1/4
EDENTON*       CLEAR     62  58  88 CALM      29.92R
CURRITUCK*     CLEAR     64  60  88 SW7       29.90R
KILL DEVIL HLS NOT AVBL
MANTEO         CLEAR     60  59  97 CALM      29.90S
CAPE HATTERAS  PTCLDY    66  61  84 W13G20    29.90R HAZE
TARBORO*       NOT AVBL
GOLDSBORO      CLEAR     62  62 100 E5        29.91R
WASHINGTON     MOCLDY    61  59  94 CALM      29.93R
GREENVILLE     PTCLDY    63  59  88 CALM      29.94S
NEW BERN       FOG       58  58 100 N3        29.93R VSB 1/4
WILMINGTON     PTCLDY    68  60  75 CALM      29.92S
$$

VAZ048-290300-
ELSEWHERE

CITY           SKY/WX    TMP DP  RH WIND       PRES   REMARKS
HARRISBURG PA  CLOUDY    56  54  93 W8        29.94R
BALTIMORE      PTCLDY    60  55  83 N6        29.93R
ANNAPOLIS      PTCLDY    60  54  80 N7        29.92R
ANDREWS AFB    CLOUDY    61  53  73 NW6       29.92R
PHILADELPHIA   CLOUDY    49  46  90 NE5       29.92S
HENDERSON NC   CLEAR     60  54  78 CALM      29.94R
GREENSBORO     PTCLDY    65  51  60 NW9       29.97R
ROCKY MOUNT    CLOUDY    59  59 100 CALM      29.92R
$$

VAZ100-290300-
MARINE

STATION/POSITION TIME  TEMP    WIND        PRES    WAVE   SWELL
                       AIR SEA DIR/SP/G            HT/PER HT/PER
                 (UTC) (F)     (DEG/KT/KT) (MB)    (FT/S) (FT/S)
CAPE MAY NJ      0148   49 47  300/  5/  5 1012.2R
LEWES DE         0148   48 47  310/  4/  5 1012.6R
OCEAN-CITY-INLET 0148   58 44  330/  3/  4 1012.5R
WACHAPREAGUE VA  0142   59 56  280/  2/  3 1011.8R
THOMAS POINT MD  0200   58 48  360/ 11/ 11   N/A
GOOSES REEF MD   0150   53      50/  6/  6 1013.6R
COVE POINT MD    0142   54     360/  7/  8 1013.3R
SOLOMONS ISLAND  0142   55 47  340/  4/  4   N/A
BISHOPS HEAD MD  0148   59 57  300/  6/  8 1012.8R
PINEY POINT MD   0142           10/  3/  4   N/A
POTOMAC MD       0150   55     360/  6/  6 1011.4R
CAMBRIDGE MD     0148   58 48  300/  5/  6 1012.1R
LEWISETTA VA     0142   60 56  280/  5/  5 1012.1R
RAPPAHANNOCK LGT 0142          270/  7/  8 1012.7R
STINGRAY PT      0150   57     300/  4/  4 1012.0R
YORK RVR RNG VA  0142   62     310/  7/  8 1011.5R
YORKTOWN VA      0142   62 51  310/  4/  4 1012.0R
JAMESTOWN VA     0150   61     320/  4/  4   N/A
DOMINION TERM VA 0142   62      CALM  /  2 1012.3R
KIPTOPEKE VA     0142      52   10/  1/  2   N/A
CHES BAY BRIDGE  0142   63 50  310/  9/ 10 1012.1R
CAPE HENRY VA    0142   67     250/  6/  8   N/A
WILLOUBY STN VA  0142   65     320/  2/  2 1013.1R
S CRANEY ISL VA  0142   63      CALM  /  3 1011.9S
CAPE HENRY BUOY  0142      51                N/A     3/ 9   2/11
CAPE CHARLES BUO 0151      49                N/A     3/ 9   2/11
OFFSHORE WE BUOY 0151      51                N/A     4/ 9   2/11
64NM E OF VA BCH 0150   55 49  200/  6/  8 1012.1R   4/ 9   3/ 9
DUCK PIER NC     0142   64 47  230/  6/  7 1011.6R
44100 DUCK FRF   0135      52                N/A     3/11   2/11
44056 DUCK FRF   0130      50                N/A     2/10   2/11
OREGON INLET NC  0142   60 61  220/  8/  8 1012.0F
HATTERAS NC      0142   65 62  240/  8/ 12 1012.3R
DIAMOND SHLS NC  0150   71 75  250/ 21/ 25 1012.1R   5/10   3/10
CAPE LOOKOUT NC  0100   67     250/  8/ 10 1013.3R
$$




USA.gov is the U.S. government's official web portal to all federal, state and local government web resources and services.